Change the Weather History Date:

Wednesday, April 24, 2013

  Actual Average Record
Temperature  
Mean Temperature 56 °F -  
Max Temperature 71 °F 71 °F 89 °F (1960)
Min Temperature 41 °F 51 °F 33 °F (1956)
Degree Days  
Heating Degree Days 9    
Growing Degree Days 6 (Base 50)    
Moisture  
Dew Point 49 °F    
Average Humidity 90    
Maximum Humidity 100    
Minimum Humidity 60    
Precipitation  
Precipitation 0.00 in - - ()
Sea Level Pressure  
Sea Level Pressure 30.08 in    
Wind  
Wind Speed 4 mph (SSW)    
Max Wind Speed 20 mph    
Max Gust Speed 29 mph    
Visibility 6 miles    
Events      
Averages and records for this station are not official NWS values.
T = Trace of Precipitation, MM = Missing Value Source: NWS Daily Summary

Daily Weather History Graph

Daily Weather History Graph

Search for Another Location

Airport or City:

Trip Planner

Search our weather history database for the weather conditions in past years. The results will help you decide how hot, cold, wet, or windy it might be!

Date:

Astronomy

Apr. 24, 2013 Rise Set
Actual Time 6:15 AM EDT 7:50 PM EDT
Civil Twilight 5:47 AM EDT 8:18 PM EDT
Nautical Twilight 5:13 AM EDT 8:52 PM EDT
Astronomical Twilight 4:37 AM EDT 9:28 PM EDT
Moon 6:51 PM EDT (4/24) 5:16 AM EDT (4/24)
Length of Visible Light 14h 31m
Length of Day
13h 34m
Waxing Gibbous, 98% of the Moon is Illuminated
Apr 24
Waxing Gibbous
Apr 25
Full
May 2
Last Quarter
May 9
New
May 18
First Quarter

Hourly Weather History & Observations

Time (EDT) Temp. Windchill Dew Point Humidity Pressure Visibility Wind Dir Wind Speed Gust Speed Precip Events Conditions
12:05 AM 43.7 °F - 43.7 °F 100% 30.18 in 5.0 mi Calm Calm - N/A   Clear
12:25 AM 43.2 °F - 43.2 °F 100% 30.18 in 5.0 mi Calm Calm - N/A   Clear
12:45 AM 43.2 °F - 43.2 °F 100% 30.18 in 4.0 mi Calm Calm - N/A   Clear
1:05 AM 42.6 °F 40.9 °F 42.6 °F 100% 30.16 in 3.0 mi ESE 3.5 mph - N/A   Mist
1:25 AM 42.6 °F - 42.6 °F 100% 30.16 in 4.0 mi Calm Calm - N/A   Clear
1:45 AM 42.8 °F - 42.8 °F 100% 30.16 in 3.0 mi Calm Calm - N/A   Mist
2:05 AM 42.8 °F - 42.8 °F 100% 30.16 in 3.0 mi Calm Calm - N/A   Mist
2:25 AM 42.6 °F - 42.6 °F 100% 30.15 in 3.0 mi Calm Calm - N/A   Mist
2:45 AM 41.9 °F - 41.9 °F 100% 30.15 in 3.0 mi Calm Calm - N/A   Mist
3:05 AM 41.5 °F - 41.5 °F 100% 30.15 in 3.0 mi Calm Calm - N/A   Mist
3:25 AM 41.4 °F - 41.4 °F 100% 30.15 in 2.5 mi Calm Calm - N/A   Mist
3:45 AM 41.0 °F - 41.0 °F 100% 30.15 in 3.0 mi Calm Calm - N/A   Mist
4:05 AM 41.9 °F 40.0 °F 41.9 °F 100% 30.15 in 3.0 mi SSW 3.5 mph - N/A   Mist
4:25 AM 41.9 °F 40.0 °F 41.9 °F 100% 30.15 in 3.0 mi South 3.5 mph - N/A   Mist
4:45 AM 41.9 °F - 41.9 °F 100% 30.15 in 2.5 mi Calm Calm - N/A   Mist
5:05 AM 41.9 °F 40.0 °F 41.9 °F 100% 30.14 in 3.0 mi South 3.5 mph - N/A   Mist
5:25 AM 43.7 °F 41.1 °F 43.7 °F 100% 30.14 in 4.0 mi South 4.6 mph - N/A   Mostly Cloudy
5:45 AM 44.6 °F - 44.6 °F 100% 30.13 in 3.0 mi Calm Calm - N/A   Overcast
5:55 AM 44.6 °F - 44.6 °F 100% 30.14 in 3.0 mi Calm Calm - N/A   Mostly Cloudy
6:05 AM 43.9 °F - 43.9 °F 100% 30.14 in 3.0 mi Calm Calm - N/A   Overcast
6:25 AM 43.2 °F - 43.2 °F 100% 30.14 in 2.5 mi Calm Calm - N/A   Mist
6:45 AM 44.6 °F 43.1 °F 44.6 °F 100% 30.14 in 2.5 mi South 3.5 mph - N/A   Mist
6:55 AM 46.4 °F 44.3 °F 46.4 °F 100% 30.14 in 2.5 mi South 4.6 mph - N/A   Partly Cloudy
7:05 AM 46.2 °F 44.1 °F 46.2 °F 100% 30.14 in 2.5 mi South 4.6 mph - N/A   Mist
7:26 AM 48.4 °F - 48.4 °F 100% 30.13 in 3.0 mi South 5.8 mph - N/A   Mist
7:42 AM 49.3 °F - 49.3 °F 100% 30.13 in 4.0 mi South 5.8 mph - N/A   Scattered Clouds
7:55 AM 50.0 °F - 50.0 °F 100% 30.13 in 4.0 mi South 8.1 mph - N/A   Mostly Cloudy
8:55 AM 55.4 °F - 55.4 °F 100% 30.12 in 10.0 mi SSW 10.4 mph - N/A   Partly Cloudy
9:53 AM 59.0 °F - 53.6 °F 82% 30.10 in 10.0 mi SSW 11.5 mph - N/A   Partly Cloudy
10:53 AM 62.6 °F - 55.4 °F 77% 30.08 in 10.0 mi South 13.8 mph - N/A   Partly Cloudy
11:53 AM 64.4 °F - 55.4 °F 73% 30.06 in 10.0 mi South 13.8 mph 18.4 mph N/A   Partly Cloudy
12:53 PM 66.2 °F - 57.2 °F 73% 30.02 in 10.0 mi SSW 13.8 mph 19.6 mph N/A   Partly Cloudy
1:53 PM 69.8 °F - 57.2 °F 64% 29.98 in 10.0 mi SSW 11.5 mph 17.3 mph N/A   Partly Cloudy
2:50 PM 71.6 °F - 57.2 °F 60% 29.98 in 10.0 mi South 13.8 mph - N/A   Scattered Clouds
3:48 PM 68.0 °F - 57.2 °F 68% 29.95 in 10.0 mi South 19.6 mph 26.5 mph N/A   Mostly Cloudy
4:53 PM 69.8 °F - 57.2 °F 64% 29.92 in 10.0 mi South 15.0 mph 23.0 mph N/A   Mostly Cloudy
5:54 PM 68.0 °F - 57.2 °F 68% 29.90 in 10.0 mi South 17.3 mph 28.8 mph N/A   Overcast
6:50 PM 66.2 °F - 57.2 °F 73% 29.89 in 10.0 mi South 18.4 mph 27.6 mph N/A   Overcast
7:50 PM 64.4 °F - 57.2 °F 77% 29.87 in 10.0 mi South 13.8 mph 23.0 mph N/A   Mostly Cloudy
8:54 PM 64.4 °F - 57.2 °F 77% 29.92 in 10.0 mi SSW 11.5 mph - N/A   Mostly Cloudy
10:47 PM 62.6 °F - 56.5 °F 80% 29.93 in 10.0 mi SSW 6.9 mph - N/A   Clear
11:07 PM 61.7 °F - 56.5 °F 83% 29.94 in 10.0 mi SW 4.6 mph - N/A   Clear
11:27 PM 62.4 °F - 56.5 °F 81% 29.94 in 10.0 mi SW 5.8 mph - N/A   Clear
11:47 PM 63.7 °F - 56.7 °F 78% 29.94 in 10.0 mi WSW 8.1 mph - N/A   Clear